FW2485 Weather Reports


Display with metric or nautical units.
time (UTC)temp
F
wind
direction
speed
MPH
gust
MPH
rain 1hr
in
rain 24hr
in
rain mn
in
humidity
%
barometer
mb
20260504185017 71 296 1.0 3.0 0.00 0.00 0.00 44 1010.3
20260504184812 71 253 1.0 3.0 0.00 0.00 0.00 43 1010.3
20260504184017 72 277 1.0 3.0 0.00 0.00 0.00 43 1010.2
20260504183516 72 269 1.0 2.0 0.00 0.00 0.00 42 1010.2
20260504183016 72 253 1.0 2.0 0.00 0.00 0.00 43 1010.2
20260504182514 73 306 1.0 2.0 0.00 0.00 0.00 42 1010.2
20260504182308 73 269 1.0 2.0 0.00 0.00 0.00 42 1010.2
20260504181516 73 1 0.0 2.0 0.00 0.00 0.00 41 1010.2
20260504181013 73 269 0.0 2.0 0.00 0.00 0.00 42 1010.1
20260504180512 73 46 0.0 2.0 0.00 0.00 0.00 41 1010.1
20260504180010 74 206 0.0 2.0 0.00 0.00 0.00 41 1010.0
20260504175509 74 269 0.0 2.0 0.00 0.00 0.00 41 1010.1
20260504175005 74 178 1.0 2.0 0.00 0.00 0.00 40 1010.1
20260504174509 74 250 1.0 2.0 0.00 0.00 0.00 40 1010.1
20260504174004 74 286 0.0 2.0 0.00 0.00 0.00 40 1010.1
20260504173503 74 241 0.0 2.0 0.00 0.00 0.00 41 1010.1
20260504173004 74 89 0.0 2.0 0.00 0.00 0.00 41 1010.2
20260504172504 74 46 1.0 3.0 0.00 0.00 0.00 41 1010.3
20260504172003 74 46 1.0 3.0 0.00 0.00 0.00 39 1010.3
20260504171503 75 269 1.0 3.0 0.00 0.00 0.00 41 1010.3
20260504171003 75 269 1.0 3.0 0.00 0.00 0.00 40 1010.3
20260504170503 75 241 1.0 3.0 0.00 0.00 0.00 40 1010.3
20260504160436 78 234 1.0 3.0 0.00 0.00 0.00 36 1010.6
20260504150928 80 124 1.0 4.0 0.00 0.00 0.00 34 1010.6
20260504150427 80 178 1.0 4.0 0.00 0.00 0.00 34 1010.6
20260504140929 82 241 2.0 6.0 0.00 0.00 0.00 33 1011.1
20260504140428 82 121 2.0 6.0 0.00 0.00 0.00 32 1011.1
20260504130724 79 35 2.0 5.0 0.00 0.00 0.00 35 1011.8
20260504110403 77 67 2.0 5.0 0.00 0.00 0.00 36 1013.3
20260504100403 77 1 1.0 4.0 0.00 0.00 0.00 38 1014.2
20260504081905 72 234 1.0 3.0 0.00 0.00 0.00 45 1014.6
20260504081656 71 89 1.0 3.0 0.00 0.00 0.00 46 1014.7
20260504080902 71 286 1.0 5.0 0.00 0.00 0.00 47 1014.7
20260504080403 70 314 1.0 5.0 0.00 0.00 0.00 45 1014.7
20260504070345 64 223 1.0 3.0 0.00 0.00 0.00 53 1014.8
20260504070159 64 269 1.0 4.0 0.00 0.00 0.00 57 1014.8
20260504050631 60 250 1.0 3.0 0.00 0.00 0.00 60 1014.4
20260504045832 60 303 1.0 2.0 0.00 0.00 0.00 60 1014.4
20260504045330 60 241 1.0 3.0 0.00 0.00 0.00 59 1014.3
20260504044830 60 269 1.0 3.0 0.00 0.00 0.00 58 1014.4
20260504044330 60 296 1.0 3.0 0.00 0.00 0.00 58 1014.3
20260504043832 60 269 1.0 3.0 0.00 0.00 0.00 58 1014.3
20260504043332 60 269 1.0 2.0 0.00 0.00 0.00 57 1014.2
20260504043142 60 269 1.0 2.0 0.00 0.00 0.00 57 1014.3
20260504042332 60 135 1.0 2.0 0.00 0.00 0.00 57 1014.3
20260504041835 60 206 1.0 3.0 0.00 0.00 0.00 56 1014.2
20260504041331 61 197 1.0 3.0 0.00 0.00 0.00 56 1014.2
20260504040831 61 269 1.0 3.0 0.00 0.00 0.00 55 1014.2
20260504040332 61 241 1.0 3.0 0.00 0.00 0.00 56 1014.2
20260504040149 61 269 1.0 3.0 0.00 0.00 0.00 56 1014.3
20260504035332 61 269 1.0 3.0 0.00 0.00 0.00 55 1014.3
20260504034831 61 223 1.0 3.0 0.00 0.00 0.00 55 1014.3
20260504034622 61 223 1.0 3.0 0.00 0.00 0.00 55 1014.2
20260504034129 61 223 1.0 4.0 0.00 0.00 0.00 55 1014.3
20260504033329 61 296 1.0 4.0 0.00 0.00 0.00 55 1014.2
20260504032830 61 248 1.0 4.0 0.00 0.00 0.00 55 1014.1
20260504032329 61 269 2.0 4.0 0.00 0.00 0.00 55 1014.1
20260504031830 61 279 2.0 4.0 0.00 0.00 0.00 55 1014.1
20260504031331 61 279 2.0 4.0 0.00 0.00 0.00 56 1014.1
20260504030829 61 241 2.0 4.0 0.00 0.00 0.00 56 1014.0
20260504030635 61 239 1.0 4.0 0.00 0.00 0.00 56 1013.9
20260504025829 62 269 0.0 3.0 0.00 0.00 0.00 56 1013.8
20260504025624 62 135 0.0 2.0 0.00 0.00 0.00 57 1013.8
20260504024823 62 89 1.0 3.0 0.00 0.00 0.00 57 1014.0
20260504024625 62 46 1.0 3.0 0.00 0.00 0.00 55 1014.2
20260504023819 62 269 2.0 4.0 0.00 0.00 0.00 55 1014.2
20260504023318 62 250 2.0 4.0 0.00 0.00 0.00 54 1014.3
20260504022817 62 291 2.0 4.0 0.00 0.00 0.00 55 1014.3
20260504022318 62 286 1.0 4.0 0.00 0.00 0.00 54 1014.2
20260504021816 62 269 2.0 4.0 0.00 0.00 0.00 55 1014.2
20260504021315 62 269 2.0 4.0 0.00 0.00 0.00 55 1014.2
20260504020813 62 261 2.0 4.0 0.00 0.00 0.00 55 1014.3
20260504020614 62 321 2.0 6.0 0.00 0.00 0.00 55 1014.4
20260504015813 62 258 2.0 6.0 0.00 0.00 0.00 54 1014.3
20260504015311 62 241 2.0 6.0 0.00 0.00 0.00 55 1014.3
20260504014810 62 245 2.0 5.0 0.00 0.00 0.00 56 1014.2
20260504014309 63 296 2.0 5.0 0.00 0.00 0.00 55 1014.2
20260504013807 63 279 1.0 4.0 0.00 0.00 0.00 55 1014.1
20260504013306 63 213 1.0 5.0 0.00 0.00 0.00 56 1014.0
20260504012806 63 269 2.0 5.0 0.00 0.00 0.00 56 1013.8
20260504012703 63 319 2.0 5.0 0.00 0.00 0.00 55 1013.7
20260504012346 63 254 2.0 5.0 0.00 0.00 0.00 55 1013.7
20260504011605 63 260 1.0 4.0 0.00 0.00 0.00 55 1013.7
20260504010805 63 296 1.0 3.0 0.00 0.00 0.00 56 1013.7
20260504010303 63 269 1.0 3.0 0.00 0.00 0.00 55 1013.7
20260504005802 63 314 1.0 6.0 0.00 0.00 0.00 55 1013.5
20260504005305 64 254 2.0 6.0 0.00 0.00 0.00 55 1013.4
20260504004802 64 241 2.0 4.0 0.00 0.00 0.00 55 1013.4
20260504004302 64 210 2.0 4.0 0.00 0.00 0.00 55 1013.3
20260504003803 64 252 2.0 4.0 0.00 0.00 0.00 55 1013.3
20260504003302 64 241 1.0 5.0 0.00 0.00 0.00 55 1013.3
20260504002802 64 252 1.0 5.0 0.00 0.00 0.00 55 1013.3
20260504002303 64 269 2.0 5.0 0.00 0.00 0.00 55 1013.3
20260504002106 64 250 2.0 5.0 0.00 0.00 0.00 55 1013.2
20260504001257 64 269 2.0 5.0 0.00 0.00 0.00 54 1013.1
20260504000750 64 291 2.0 6.0 0.00 0.00 0.00 54 1013.2
20260504000247 64 269 2.0 6.0 0.00 0.00 0.00 55 1013.2
20260503235739 64 255 2.0 4.0 0.00 0.00 0.00 55 1013.2
20260503235239 64 250 2.0 5.0 0.00 0.00 0.00 56 1013.1
20260503234740 64 269 2.0 8.0 0.00 0.00 0.00 56 1013.2
20260503234241 64 258 2.0 8.0 0.00 0.00 0.00 57 1013.1
20260503234044 64 223 2.0 6.0 0.00 0.00 0.00 57 1013.1
20260503233237 64 231 2.0 4.0 0.00 0.00 0.00 57 1013.1
20260503232733 64 259 1.0 4.0 0.00 0.00 0.00 57 1013.1
20260503232539 64 284 2.0 4.0 0.00 0.00 0.00 57 1013.1
20260503231731 64 269 2.0 4.0 0.00 0.00 0.00 56 1013.1
20260503231531 64 46 2.0 4.0 0.00 0.00 0.00 56 1013.0
20260503230731 64 269 1.0 4.0 0.00 0.00 0.00 56 1013.0
20260503230231 65 296 1.0 4.0 0.00 0.00 0.00 55 1013.0
20260503230113 65 241 1.0 3.0 0.00 0.00 0.00 55 1012.9
20260503225231 65 283 1.0 3.0 0.00 0.00 0.00 55 1012.8
20260503224732 65 248 1.0 3.0 0.00 0.00 0.00 55 1012.8
20260503224232 65 286 1.0 2.0 0.00 0.00 0.00 55 1012.7
20260503223732 66 253 1.0 2.0 0.00 0.00 0.00 54 1012.7
20260503223532 66 253 1.0 2.0 0.00 0.00 0.00 54 1012.6
20260503222720 66 269 1.0 3.0 0.00 0.00 0.00 53 1012.6
20260503222216 66 314 1.0 3.0 0.00 0.00 0.00 53 1012.7
20260503221717 66 269 1.0 3.0 0.00 0.00 0.00 53 1012.7
20260503221517 66 269 1.0 5.0 0.00 0.00 0.00 52 1012.7
20260503220716 66 283 2.0 5.0 0.00 0.00 0.00 52 1012.7
20260503220217 66 46 2.0 4.0 0.00 0.00 0.00 52 1012.7
20260503215715 66 269 2.0 5.0 0.00 0.00 0.00 52 1012.6
20260503215213 66 241 2.0 5.0 0.00 0.00 0.00 52 1012.5
20260503214713 67 277 1.0 3.0 0.00 0.00 0.00 52 1012.4
20260503214213 67 287 1.0 3.0 0.00 0.00 0.00 52 1012.4
20260503213712 67 241 1.0 4.0 0.00 0.00 0.00 52 1012.4
20260503213212 67 89 1.0 6.0 0.00 0.00 0.00 51 1012.3
20260503212716 67 248 1.0 6.0 0.00 0.00 0.00 51 1012.3
20260503212214 67 269 1.0 4.0 0.00 0.00 0.00 51 1012.3
20260503211713 67 231 1.0 4.0 0.00 0.00 0.00 51 1012.2
20260503211213 67 296 1.0 6.0 0.00 0.00 0.00 51 1012.1
20260503210712 67 269 1.0 6.0 0.00 0.00 0.00 51 1012.1
20260503210212 67 178 1.0 4.0 0.00 0.00 0.00 51 1011.9
20260503210019 67 269 1.0 4.0 0.00 0.00 0.00 50 1012.1
20260503205211 67 296 1.0 4.0 0.00 0.00 0.00 50 1011.9
20260503205010 67 269 2.0 4.0 0.00 0.00 0.00 50 1011.9
20260503204212 67 258 2.0 5.0 0.00 0.00 0.00 50 1011.8
20260503203709 67 269 1.0 5.0 0.00 0.00 0.00 49 1011.7
20260503203216 67 269 1.0 3.0 0.00 0.00 0.00 50 1011.8
20260503202710 67 46 1.0 3.0 0.00 0.00 0.00 50 1011.7
20260503202208 68 276 1.0 4.0 0.00 0.00 0.00 49 1011.7
20260503201708 68 223 2.0 6.0 0.00 0.00 0.00 49 1011.7
20260503201210 68 269 1.0 6.0 0.00 0.00 0.00 49 1011.7
20260503200709 68 296 1.0 3.0 0.00 0.00 0.00 49 1011.6
20260503200208 68 241 1.0 3.0 0.00 0.00 0.00 49 1011.6
20260503195708 69 254 1.0 3.0 0.00 0.00 0.00 49 1011.5
20260503195510 69 1 1.0 3.0 0.00 0.00 0.00 49 1011.6
20260503194710 69 241 1.0 3.0 0.00 0.00 0.00 48 1011.6
20260503194209 69 286 2.0 4.0 0.00 0.00 0.00 47 1011.6
20260503193707 69 223 2.0 4.0 0.00 0.00 0.00 47 1011.5
20260503193324 70 296 1.0 3.0 0.00 0.00 0.00 48 1011.4
20260503193254 70 237 1.0 3.0 0.00 0.00 0.00 47 1011.4
20260503192311 71 269 2.0 4.0 0.00 0.00 0.00 47 1011.3
20260503192247 70 234 1.0 4.0 0.00 0.00 0.00 47 1011.4
20260503191205 71 331 1.0 3.0 0.00 0.00 0.00 47 1011.3
20260503190703 71 253 1.0 3.0 0.00 0.00 0.00 46 1011.2
20260503190459 72 283 1.0 2.0 0.00 0.00 0.00 46 1011.2
20260503185659 73 279 0.0 2.0 0.00 0.00 0.00 46 1011.2